Terminal Aerodrome Forecast
Issued by NWS Salt Lake City, UT

Home | Current Version | Previous Version | Text Only | Print | Product List | Glossary On
Versions: 1 2 3 4 5 6 7 8 9 10 11 12 13 14 15 16 17 18 19 20 21 22 23 24 25 26 27 28 29 30 31 32 33 34 35 36 37 38 39 40 41 42 43 44 45 46 47 48 49 50
000
FTUS45 KSLC 232327
TAFSLC
TAF
KSLC 232327Z 2400/2506 30007KT P6SM SCT030 BKN060
     FM240300 15007KT P6SM VCSH SCT020 BKN050
     FM241000 15007KT 2SM -SN BR SCT010 BKN025
     FM241600 30008KT P6SM VCSH SCT020 BKN050
     FM242200 33006KT P6SM SCT060 SCT120
     FM250300 14006KT P6SM SCT060 SCT120=

USA.gov is the U.S. government's official web portal to all federal, state and local government web resources and services.